Location: *
(38.3914°N, 75.0697°W)
Time: 04:19:25
(UTC+00:00)

STARLINK-1128 - Pass Details

Date: 17 February 2020
Orbit: 548 x 551 km, 53.0° (Epoch: 09 April)

Event Time Altitude Azimuth Distance (km) Brightness Sun altitude
Exits shadow 09:00:09 - 130° (SE) 1,944 6.8 -33.6°
Enters shadow 10:05:40 -60° 228° (SW) 11,686 10.3 -20.9°
Maximum altitude 10:39:40 75° 137° (SE) 573 3.8 -14.2°
